sat.trackr.live / text

‹ back to catalog

QIANFAN-72

NORAD 62802 · 2025-016T

PAYLOAD ACTIVE UNKNOWN

§ Identity

Operator
Country
PRC
Launch date
2025-01-23
Launch site
TAISC
Launch vehicle
Mass (kg)
RCS (m²)

External: N2YO · Heavens-Above · Gunter

§ Orbital elements

Epoch: 2026-09-22T21:44:31.527744Z

Period
106.59 min
Inclination
88.9654°
Eccentricity
0.0017251
Mean motion
13.51028859 rev/d
Perigee alt
1,055.6 km
Apogee alt
1,081.3 km
Semi-major
7,446.6 km
B*
7.9968e-5
RAAN
73.5391°
Arg perigee
253.1356°
Mean anomaly
106.7903°
Rev number
8,559

§ Raw data

QIANFAN-721 62802U 25016T   26265.90592046  .00000064  00000+0  79968-4 0  99902 62802  88.9654  73.5391 0017251 253.1356 106.7903 13.51028859 85594

JSON: /api/v1/satellites/62802 · /tle

For live sub-satellite position, see the globe view (requires WebGL).

§ Visibility from observer

Set your observer location to see the next 7 days of passes ≥ 10°. The values pass through the URL so the page stays shareable.

No JS? Fill the form by hand. The geolocation button needs JavaScript.